TimeEDT,TemperatureF,Dew PointF,Humidity,Sea Level PressureIn,VisibilityMPH,Wind Direction,Wind SpeedMPH,Gust SpeedMPH,PrecipitationIn,Events,Conditions,WindDirDegrees,DateUTC
12:15 AM,71.6,69.8,94,30.00,10.0,SSW,11.5,18.4,N/A,Rain-Thunderstorm,Rain,200,2013-06-27 04:15:00
12:35 AM,71.6,69.8,94,29.99,10.0,South,12.7,16.1,N/A,,Overcast,170,2013-06-27 04:35:00
12:55 AM,69.8,69.8,100,29.99,10.0,South,8.1,-,N/A,Rain,Light Rain,190,2013-06-27 04:55:00
1:15 AM,69.8,69.8,100,29.98,10.0,South,10.4,17.3,N/A,,Overcast,170,2013-06-27 05:15:00
1:35 AM,69.8,69.8,100,29.96,10.0,South,10.4,17.3,N/A,Rain,Light Rain,170,2013-06-27 05:35:00
2:15 AM,69.8,69.8,100,29.93,5.0,SSE,8.1,-,0.03,Rain,Heavy Rain,160,2013-06-27 06:15:00
2:35 AM,68.0,68.0,100,29.92,1.2,SSE,5.8,-,0.46,Rain-Thunderstorm,Heavy Thunderstorms and Rain,160,2013-06-27 06:35:00
2:55 AM,68.0,68.0,100,29.91,3.0,SSE,5.8,-,0.68,Rain-Thunderstorm,Rain,150,2013-06-27 06:55:00
3:15 AM,68.0,68.0,100,29.90,7.0,SW,10.4,17.3,0.05,Rain,Rain,220,2013-06-27 07:15:00
3:35 AM,68.0,68.0,100,29.90,7.0,WSW,9.2,-,0.08,Rain,Rain,240,2013-06-27 07:35:00
3:55 AM,66.2,66.2,100,29.90,10.0,WSW,15.0,23.0,0.09,Rain,Light Rain,250,2013-06-27 07:55:00
4:15 AM,66.2,64.4,94,29.91,10.0,West,15.0,21.9,N/A,,Overcast,260,2013-06-27 08:15:00
4:35 AM,64.4,64.4,100,29.93,10.0,West,10.4,16.1,N/A,,Overcast,260,2013-06-27 08:35:00
4:55 AM,64.4,64.4,100,29.95,10.0,WSW,8.1,-,N/A,,Overcast,250,2013-06-27 08:55:00
5:15 AM,64.4,64.4,100,29.94,10.0,WSW,4.6,-,N/A,,Mostly Cloudy,240,2013-06-27 09:15:00
5:35 AM,64.4,64.4,100,29.94,10.0,WSW,5.8,-,N/A,,Mostly Cloudy,240,2013-06-27 09:35:00
5:55 AM,64.4,64.4,100,29.95,10.0,SW,5.8,-,N/A,,Overcast,230,2013-06-27 09:55:00
6:15 AM,64.4,64.4,100,29.96,7.0,SW,5.8,-,0.01,Rain,Light Rain,220,2013-06-27 10:15:00
6:35 AM,64.4,64.4,100,29.95,10.0,SW,6.9,-,0.01,,Mostly Cloudy,230,2013-06-27 10:35:00
6:55 AM,64.4,64.4,100,29.95,10.0,SSW,3.5,-,0.01,,Scattered Clouds,210,2013-06-27 10:55:00
7:15 AM,64.4,64.4,100,29.93,7.0,South,4.6,-,0.01,Rain,Light Rain,170,2013-06-27 11:15:00
7:35 AM,64.4,64.4,100,29.94,10.0,SSW,4.6,-,0.01,,Overcast,200,2013-06-27 11:35:00
7:55 AM,64.4,64.4,100,29.95,10.0,WSW,6.9,-,0.01,Rain,Rain,250,2013-06-27 11:55:00
8:15 AM,64.4,64.4,100,29.95,10.0,SW,6.9,-,N/A,,Overcast,220,2013-06-27 12:15:00
8:35 AM,64.4,64.4,100,29.95,10.0,SW,9.2,-,N/A,,Overcast,230,2013-06-27 12:35:00
8:55 AM,64.4,64.4,100,29.95,10.0,SW,9.2,-,0.01,Rain-Thunderstorm,Light Thunderstorms and Rain,220,2013-06-27 12:55:00
9:15 AM,64.4,64.4,100,29.94,10.0,SSW,10.4,-,N/A,,Overcast,210,2013-06-27 13:15:00
9:35 AM,66.2,66.2,100,29.95,10.0,WSW,10.4,-,N/A,,Overcast,240,2013-06-27 13:35:00
9:55 AM,66.2,66.2,100,29.94,10.0,SW,11.5,-,N/A,,Overcast,230,2013-06-27 13:55:00
10:15 AM,66.2,66.2,100,29.94,10.0,SW,10.4,-,N/A,,Overcast,230,2013-06-27 14:15:00
10:35 AM,66.2,66.2,100,29.94,10.0,SW,11.5,-,N/A,,Overcast,230,2013-06-27 14:35:00
10:55 AM,66.2,66.2,100,29.94,7.0,SW,12.7,18.4,N/A,,Overcast,230,2013-06-27 14:55:00
11:15 AM,66.2,66.2,100,29.94,5.0,SW,11.5,-,N/A,,Overcast,230,2013-06-27 15:15:00
11:35 AM,68.0,68.0,100,29.94,10.0,WSW,15.0,18.4,N/A,,Overcast,240,2013-06-27 15:35:00
11:55 AM,68.0,68.0,100,29.94,10.0,WSW,12.7,-,N/A,,Overcast,250,2013-06-27 15:55:00
12:15 PM,69.8,69.8,100,29.94,10.0,WSW,9.2,-,N/A,,Overcast,240,2013-06-27 16:15:00
12:35 PM,69.8,69.8,100,29.93,10.0,WSW,10.4,-,N/A,,Overcast,250,2013-06-27 16:35:00
12:55 PM,69.8,69.8,100,29.94,10.0,WSW,10.4,-,N/A,,Overcast,240,2013-06-27 16:55:00
1:15 PM,69.8,69.8,100,29.94,10.0,WSW,9.2,-,N/A,,Overcast,240,2013-06-27 17:15:00
1:35 PM,71.6,69.8,94,29.94,10.0,WSW,8.1,-,N/A,,Overcast,250,2013-06-27 17:35:00
1:55 PM,73.4,71.6,94,29.94,10.0,WSW,11.5,-,N/A,,Overcast,250,2013-06-27 17:55:00
2:15 PM,73.4,71.6,94,29.94,10.0,West,8.1,-,N/A,,Overcast,260,2013-06-27 18:15:00
2:35 PM,73.4,71.6,94,29.94,10.0,WSW,9.2,-,N/A,,Overcast,240,2013-06-27 18:35:00
2:55 PM,73.4,71.6,94,29.93,10.0,SW,9.2,-,N/A,,Overcast,230,2013-06-27 18:55:00
3:15 PM,75.2,71.6,89,29.93,10.0,SW,10.4,-,N/A,,Overcast,220,2013-06-27 19:15:00
3:35 PM,75.2,69.8,83,29.93,10.0,WSW,9.2,-,N/A,,Overcast,240,2013-06-27 19:35:00
3:55 PM,77.0,69.8,78,29.92,10.0,WSW,10.4,-,N/A,,Overcast,240,2013-06-27 19:55:00
4:15 PM,77.0,69.8,78,29.93,10.0,WSW,10.4,-,N/A,,Overcast,250,2013-06-27 20:15:00
4:35 PM,77.0,69.8,78,29.91,10.0,SW,8.1,-,N/A,,Overcast,230,2013-06-27 20:35:00
4:55 PM,77.0,69.8,78,29.91,10.0,SW,8.1,-,N/A,,Mostly Cloudy,230,2013-06-27 20:55:00
5:15 PM,77.0,69.8,78,29.90,10.0,SW,8.1,-,N/A,,Overcast,230,2013-06-27 21:15:00
5:35 PM,75.2,69.8,83,29.90,10.0,WSW,6.9,-,N/A,,Overcast,250,2013-06-27 21:35:00
5:55 PM,75.2,69.8,83,29.90,10.0,WSW,4.6,-,N/A,,Mostly Cloudy,250,2013-06-27 21:55:00
6:15 PM,75.2,69.8,83,29.90,10.0,West,5.8,-,N/A,,Mostly Cloudy,260,2013-06-27 22:15:00
6:35 PM,77.0,69.8,78,29.89,10.0,WSW,11.5,-,N/A,,Mostly Cloudy,240,2013-06-27 22:35:00
6:55 PM,75.2,69.8,83,29.89,10.0,West,8.1,-,N/A,,Mostly Cloudy,260,2013-06-27 22:55:00
7:15 PM,75.2,69.8,83,29.90,10.0,West,4.6,-,N/A,,Overcast,280,2013-06-27 23:15:00
7:35 PM,73.4,68.0,83,29.89,10.0,West,5.8,-,N/A,,Overcast,270,2013-06-27 23:35:00
7:55 PM,73.4,68.0,83,29.90,10.0,West,4.6,-,N/A,,Overcast,270,2013-06-27 23:55:00
8:15 PM,73.4,68.0,83,29.89,10.0,West,3.5,-,N/A,,Overcast,260,2013-06-28 00:15:00
8:35 PM,73.4,68.0,83,29.90,10.0,WSW,5.8,-,N/A,,Mostly Cloudy,250,2013-06-28 00:35:00
8:55 PM,73.4,68.0,83,29.90,10.0,West,6.9,-,N/A,,Overcast,260,2013-06-28 00:55:00
9:15 PM,71.6,68.0,88,29.90,10.0,West,5.8,-,N/A,,Overcast,260,2013-06-28 01:15:00
9:35 PM,71.6,69.8,94,29.91,10.0,WSW,5.8,-,N/A,,Scattered Clouds,250,2013-06-28 01:35:00
9:55 PM,69.8,69.8,100,29.92,7.0,SW,3.5,-,N/A,,Scattered Clouds,220,2013-06-28 01:55:00
10:15 PM,69.8,69.8,100,29.93,7.0,West,5.8,-,N/A,,Scattered Clouds,270,2013-06-28 02:15:00
10:35 PM,69.8,69.8,100,29.93,7.0,Calm,Calm,-,N/A,,Clear,0,2013-06-28 02:35:00
10:55 PM,68.0,68.0,100,29.93,5.0,SSW,4.6,-,N/A,,Clear,210,2013-06-28 02:55:00
11:15 PM,68.0,68.0,100,29.92,4.0,SSW,4.6,-,N/A,,Scattered Clouds,200,2013-06-28 03:15:00
11:35 PM,68.0,68.0,100,29.92,5.0,SW,3.5,-,N/A,,Scattered Clouds,230,2013-06-28 03:35:00
11:55 PM,68.0,68.0,100,29.92,4.0,SW,4.6,-,N/A,,Scattered Clouds,220,2013-06-28 03:55:00